Flag for Cambodia Weather past 2 weeks in Phnom Penh, Cambodia

Now
86 °F

Scattered clouds.


Feels Like: 92 °F
Forecast: 76 / 91 °F
Wind: 8 mph from Southeast

Location: Phnom-Penh / Pochentong

Current Time: Jul 30, 2015 at 2:06:06 PM

Latest Report: Jul 30, 2015 at 1:30 PM


Visibility: N/A

Pressure: N/A

Humidity: 62%

Dew point: 72 °F

Location of Phnom PenhLocation

Historic Weather in Phnom Penh — Graph

°F

Phnom Penh temperature yesterday

Maximum temperature yesterday: 95 °F (at 1:30 PM)
Minimum temperature yesterday: 77 °F (at 3:30 PM)
Average temperature yesterday: 82 °F

Past Weeks' High & Low Weather Summary

 TemperatureHumidityPressure
High102 °F (Jul 17, 10:00 PM)100% (Jul 19, 3:00 PM)29.89 "Hg (Jul 19, 3:00 PM)
Low75 °F (Jul 19, 2:30 PM)19% (Jul 16, 10:00 PM)29.62 "Hg (Jul 15, 5:00 PM)
Average86 °F68%29.78 "Hg
* Reported Jul 15 1:00 PM — Jul 30 1:00 PM, Phnom Penh, Weather by CustomWeather, © 2015

Note: Actual official high and low records may vary slightly from our data, if they occured in-between our weather recording intervals... More about our weather records

Advertising

Phnom Penh weather history for previous 24 hours

 ConditionsComfort  
Time TempWeatherWind HumidityBarometerVisibility
1:00 PM
Thu, Jul 30
88 °FScattered clouds.8 mph62%N/AN/A
12:30 PM84 °FScattered clouds.12 mph70%N/AN/A
12:00 PM88 °FScattered clouds.7 mph66%N/AN/A
11:30 AM91 °FScattered clouds.2 mph59%N/AN/A
10:30 AM88 °FScattered clouds.3 mph66%29.86 "HgN/A
10:00 AM86 °FPassing clouds.3 mph70%29.86 "HgN/A
9:30 AM86 °FPassing clouds.5 mph70%29.86 "HgN/A
9:00 AM84 °FPassing clouds.6 mph74%29.86 "HgN/A
8:30 AM82 °FScattered clouds.3 mph79%29.86 "HgN/A
8:00 AM79 °FScattered clouds.6 mph89%29.86 "HgN/A
7:30 AM79 °FScattered clouds.5 mph89%29.86 "Hg6 mi
7:00 AM77 °FScattered clouds.5 mph94%29.83 "Hg5 mi
6:30 AM77 °FBroken clouds.2 mph94%29.83 "Hg4 mi
6:00 AM77 °FBroken clouds.No wind94%29.83 "Hg4 mi
1:00 AM77 °FPartly cloudy.2 mph89%29.83 "Hg6 mi
12:30 AM77 °FPartly cloudy.1 mph89%29.83 "Hg6 mi
12:00 AM77 °FPartly cloudy.1 mph94%29.86 "Hg6 mi
11:30 PM
Wed, Jul 29
77 °FPartly cloudy.1 mph94%29.86 "Hg6 mi
11:00 PM77 °FPartly cloudy.1 mph94%29.86 "Hg6 mi
10:30 PM77 °FPartly cloudy.2 mph89%29.86 "Hg5 mi
10:00 PM77 °FPartly cloudy.6 mph89%29.86 "Hg5 mi
9:30 PM79 °FPartly cloudy.3 mph89%29.86 "Hg5 mi
9:00 PM79 °FPartly cloudy.2 mph89%29.86 "Hg5 mi
8:30 PM79 °FPartly cloudy.No wind89%29.83 "Hg5 mi
8:00 PM77 °FPartly cloudy.2 mph94%29.83 "Hg5 mi
7:30 PM79 °FPartly cloudy.3 mph89%29.83 "Hg5 mi
7:00 PM79 °FPartly cloudy.6 mph89%29.80 "Hg6 mi
6:30 PM79 °FPartly cloudy.7 mph89%29.80 "Hg6 mi
6:00 PM79 °FBroken clouds.7 mph89%29.80 "Hg6 mi
5:30 PM79 °FLight rain. Broken clouds.5 mph89%29.80 "Hg6 mi
5:00 PM77 °FBroken clouds.8 mph94%29.77 "Hg6 mi
4:30 PM79 °FLight rain. Broken clouds.8 mph89%29.77 "HgN/A
4:00 PM77 °FLight rain. Scattered clouds.10 mph94%29.77 "Hg4 mi
3:30 PM77 °FRain. Scattered clouds.17 mph94%29.77 "Hg2 mi
3:00 PM81 °FRain showers. Scattered clouds.N/A84%29.77 "Hg3 mi
2:30 PM91 °FScattered clouds.6 mph56%29.77 "HgN/A
2:00 PM91 °FScattered clouds.5 mph56%29.77 "HgN/A
Weather by CustomWeather, © 2015

See weather overviewHow to use our weather pages